Location: N�rnberg
(49.4489°N, 11.0797°E)
Time: 12:27:46
(UTC+01:00)

ISS - Pass Details

Date: 12 January 2018
Orbit: 402 x 407 km, 51.6° (Epoch: 18 January)

Event Time Altitude Azimuth Distance (km) Brightness Sun altitude
Exits shadow 06:23:55 36° 245° (WSW) 669 -3.2 -16.3°
Maximum altitude 06:24:37 42° 210° (SSW) 596 -3.2 -16.2°
Drops below altitude 10° 06:27:44 10° 138° (SE) 1,463 -0.1 -15.7°
Sets 06:29:52 0° 131° (SE) 2,321 1.2 -15.3°
